Overview Statistics Trail Chart Weather Telemetry Raw packets
 

This is the latest recevied weather packets stored in our database for station/object HOWARD. If no packets are shown the sender has not sent any weather packets the latest 10 day(s).

<< 22 23 24 25 26 27 28 >>
Time Temp. Humidity Pressure Rain* Wind** Luminosity Snow
1788324883 11.11° C 35% 1010.8 hPa 0 mm - - -
1788324283 11.11° C 36% 1010.8 hPa 0 mm - - -
1788323727 11.11° C 38% 1010.6 hPa 0 mm - - -
1788323683 11.11° C 38% 1010.6 hPa 0 mm - - -
1788323083 11.11° C 39% 1010.7 hPa 0 mm - - -
1788322483 11.11° C 40% 1010.5 hPa 0 mm - - -
1788321935 11.11° C 40% 1010.5 hPa 0 mm - - -
1788321883 11.11° C 40% 1010.5 hPa 0 mm - - -
1788321283 11.67° C 40% 1010.3 hPa 0 mm - - -
1788320683 11.67° C 39% 1010.3 hPa 0 mm - - -
1788320083 11.67° C 40% 1010.9 hPa 0 mm - - -
1788319559 11.67° C 41% 1010.7 hPa 0 mm - - -
1788319483 11.67° C 41% 1010.7 hPa 0 mm - - -
1788318883 12.22° C 40% 1010.5 hPa 0 mm - - -
1788318283 11.67° C 41% 1010.5 hPa 0 mm - - -
1788317683 11.67° C 41% 1010.4 hPa 0 mm - - -
1788317083 11.67° C 42% 1010.5 hPa 0 mm - - -
1788316483 11.67° C 43% 1010.3 hPa 0 mm - - -
1788315883 11.67° C 45% 1010.3 hPa 0 mm - - -
1788315283 12.22° C 44% 1010.1 hPa 0 mm - - -
1788314683 12.22° C 45% 1010.2 hPa 0 mm - - -
1788314083 12.22° C 43% 1010.2 hPa 0 mm - - -
1788313483 12.22° C 46% 1010.3 hPa 0 mm - - -
1788312884 12.22° C 47% 1010.3 hPa 0 mm - - -
1788312294 12.22° C 47% 1010.2 hPa 0 mm - - -

* Rain latest hour (hover to see other rain measurements)
** Current wind speed in m/s (hover to see current wind gust speed)